Regional Weather Roundup
Issued by NWS

Home | Current Version | Previous Version | Graphics & Text | Print | Product List | Glossary On
Versions: 1 2 3 4 5 6 7 8 9 10 11 12 13 14 15 16 17 18 19 20 21 22 23 24 25 26 27 28 29 30 31 32 33 34 35 36 37 38 39 40 41 42 43 44 45 46 47 48 49 50
000
ASUS45 KSLC 190010
RWRUT

UTAH REGIONAL WEATHER ROUNDUP
NATIONAL WEATHER SERVICE SALT LAKE CITY UT
600 PM MDT THU SEP 18 2014

UTZ001>011-023>025-190100-

NORTHERN UTAH

CITY           SKY/WX    TMP DP  RH WIND       PRES   REMARKS
HILL AFB       MOSUNNY   88  47  24 S13       29.82F
LOGAN          SUNNY     86  51  29 SW12      29.78F
OGDEN          MOSUNNY   89  44  20 S13       29.78F
PROVO AIRPORT  NOT AVBL
SALT LAKE CITY MOSUNNY   89  42  19 S14G23    29.76F
VERNAL         SUNNY     83  44  25 E3        29.90F
WENDOVER       PTSUNNY   81  48  32 N20G31    29.77R
HEBER CITY     MOSUNNY   82  43  24 SW12      29.88F
WEST JORDAN    MOSUNNY   88  45  22 S10G16    29.81F

$$

UTZ012>022-026-027-190100-

SOUTHERN UTAH

CITY           SKY/WX    TMP DP  RH WIND       PRES   REMARKS
BRYCE CANYON   SUNNY     71  44  37 S9        30.11F
CEDAR CITY     SUNNY     80  47  31 SW17G23   29.92F
MILFORD        SUNNY     87  45  23 SW20G26   29.85F
MOAB/CYNLANDS  SUNNY     90  43  19 NW8       29.83F
PRICE          SUNNY     84  39  20 S14       29.95F
ST GEORGE      PTCLDY    91  57  31 W13       29.76S HX  90

$$

REGIONAL REPORTS     COLORADO/ARIZONA

CITY           SKY/WX    TMP DP  RH WIND       PRES   REMARKS
CRAIG, CO      MOSUNNY   83  37  19 SW8       29.97F
GRAND JUNCTION SUNNY     84  45  25 W9        29.88S
RIFLE          SUNNY     84  37  18 W13       29.92F
MONTROSE       SUNNY     86  37  17 N8        29.96F
CORTEZ         SUNNY     81  38  21 W12       29.99S
PAGE, AZ       SUNNY     90  47  22 NE7       29.85F
GRAND CANYON   MOSUNNY   77  47  34 VRB3      30.05F
KINGMAN        SUNNY     89  50  26 SW12      29.83F
FLAGSTAFF      LGT RAIN  62  56  80 W9        30.11R

$$

REGIONAL REPORTS    NEVADA/IDAHO/WYOMING

CITY           SKY/WX    TMP DP  RH WIND       PRES   REMARKS
LAS VEGAS, NV  MOSUNNY   96  28   9 SW21G29   29.67S HX  90
ELY            MOSUNNY   81  45  28 SW16      29.93S
ELKO           PTSUNNY   72  52  49 NE10      29.88R
POCATELLO, ID  TSTM      64  58  80 S21       29.92R
BURLEY         CLOUDY    71  51  49 SW6       29.84F HAZE
EVANSTON, WY   MOSUNNY   79  38  22 W21G28    30.00F
ROCK SPRINGS   SUNNY     80  32  17 S20       29.96F

$$


USA.gov is the U.S. government's official web portal to all federal, state and local government web resources and services.